Location: Biltmore Gardens
(41.6070°N, 83.4666°W)
Time: 15:13:10
(UTC+00:00)

Cosmos 2278 Rocket - Pass Details

Date: 14 July 2020
Orbit: 841 x 845 km, 71.0° (Epoch: 12 August)

Event Time Altitude Azimuth Distance (km) Brightness Sun altitude
Rises 01:53:51 0° 340° (NNW) 3,412 6.5 -8.0°
Reaches altitude 10° 01:56:23 10° 345° (NNW) 2,473 5.5 -8.4°
Maximum altitude 02:01:54 51° 61° (ENE) 1,058 2.6 -9.2°
Enters shadow 02:06:54 12° 136° (SE) 2,286 3.8 -9.9°
